When you browse on this site, cookies collect data to enhance your experience and personalize the content and advertising you see.
Visit our Privacy Policy to learn more. By continuing to use the site, you agree to this use of cookies and data.
  • In Hungary
  • List of Countries
  • For 7 days
  • Water Temperature
  • Satellite Maps
  • Weather Map
  • News
  • Weather Widgets
  • user-avatar
    Login

    Hourly Weather Istiqlol

    Today, 12 December, Wednesday

    Time Temperature Precipitation Wind Pressure Humidity
    00:00 +4°C° 0 mm 1 mps 680 mmHg 61%
    01:00 +3°C° 0 mm 1 mps 680 mmHg 61%
    02:00 +3°C° 0 mm 1 mps 680 mmHg 60%
    03:00 +3°C° 0 mm 1 mps 680 mmHg 60%
    04:00 +3°C° 0 mm 1 mps 680 mmHg 60%
    05:00 +3°C° 0 mm 1 mps 680 mmHg 59%
    06:00 +3°C° 0 mm 1 mps 680 mmHg 58%
    07:00 +2°C° 0 mm 1 mps 680 mmHg 58%
    08:00 +2°C° 0 mm 1 mps 680 mmHg 57%
    09:00 +4°C° 0 mm 1 mps 680 mmHg 52%
    10:00 +5°C° 0 mm 1 mps 680 mmHg 48%
    11:00 +7°C° 0 mm 1 mps 680 mmHg 44%
    12:00 +7°C° 0 mm 1 mps 680 mmHg 44%
    13:00 +8°C° 0 mm 1 mps 680 mmHg 43%
    14:00 +8°C° 0 mm 1 mps 680 mmHg 43%
    15:00 +7°C° 0 mm 1 mps 680 mmHg 47%
    16:00 +6°C° 0 mm 1 mps 680 mmHg 51%
    17:00 +4°C° 0 mm 0 mps 680 mmHg 55%
    18:00 +5°C° 0 mm 1 mps 681 mmHg 55%
    19:00 +4°C° 0 mm 1 mps 681 mmHg 55%
    20:00 +4°C° 0 mm 1 mps 681 mmHg 55%
    21:00 +4°C° 0 mm 1 mps 681 mmHg 54%
    22:00 +2°C° 0 mm 2 mps 681 mmHg 53%
    23:00 +2°C° 0 mm 2 mps 681 mmHg 52%

    Tomorrow, 13 December, Thursday

    Time Temperature Precipitation Wind Pressure Humidity
    00:00 +2°C° 0 mm 2 mps 681 mmHg 51%
    01:00 +2°C° 0 mm 2 mps 681 mmHg 50%
    02:00 +2°C° 0 mm 2 mps 681 mmHg 49%
    03:00 +1°C° 0 mm 2 mps 681 mmHg 47%
    04:00 +1°C° 0 mm 2 mps 681 mmHg 46%
    05:00 +1°C° 0 mm 2 mps 681 mmHg 44%
    06:00 +1°C° 0 mm 2 mps 681 mmHg 43%
    07:00 +1°C° 0 mm 2 mps 681 mmHg 41%
    08:00 +1°C° 0 mm 2 mps 682 mmHg 40%
    09:00 +3°C° 0 mm 2 mps 682 mmHg 36%
    10:00 +5°C° 0 mm 1 mps 682 mmHg 33%
    11:00 +7°C° 0 mm 1 mps 682 mmHg 30%
    12:00 +7°C° 0 mm 1 mps 682 mmHg 30%
    13:00 +8°C° 0 mm 1 mps 681 mmHg 30%
    14:00 +9°C° 0 mm 1 mps 681 mmHg 30%
    15:00 +7°C° 0 mm 1 mps 681 mmHg 33%
    16:00 +6°C° 0 mm 1 mps 681 mmHg 35%
    17:00 +5°C° 0 mm 1 mps 682 mmHg 38%
    18:00 +4°C° 0 mm 1 mps 682 mmHg 37%
    19:00 +4°C° 0 mm 1 mps 682 mmHg 36%
    20:00 +3°C° 0 mm 2 mps 683 mmHg 35%
    21:00 +2°C° 0 mm 2 mps 682 mmHg 34%
    22:00 +2°C° 0 mm 2 mps 682 mmHg 34%
    23:00 +2°C° 0 mm 2 mps 682 mmHg 33%

    Day after tomorrow, 14 December, Friday

    Time Temperature Precipitation Wind Pressure Humidity
    00:00 +2°C° 0 mm 2 mps 682 mmHg 33%
    01:00 +2°C° 0 mm 2 mps 682 mmHg 32%
    02:00 +1°C° 0 mm 2 mps 682 mmHg 32%
    03:00 +1°C° 0 mm 2 mps 682 mmHg 31%
    04:00 +1°C° 0 mm 2 mps 682 mmHg 31%
    05:00 +1°C° 0 mm 2 mps 682 mmHg 30%
    06:00 +1°C° 0 mm 2 mps 682 mmHg 30%
    07:00 +1°C° 0 mm 2 mps 682 mmHg 29%
    08:00 +1°C° 0 mm 2 mps 682 mmHg 28%
    09:00 +3°C° 0 mm 2 mps 682 mmHg 26%
    10:00 +5°C° 0 mm 2 mps 683 mmHg 24%
    11:00 +8°C° 0 mm 1 mps 683 mmHg 22%
    12:00 +9°C° 0 mm 1 mps 682 mmHg 22%
    13:00 +9°C° 0 mm 1 mps 682 mmHg 22%
    14:00 +10°C° 0 mm 1 mps 682 mmHg 23%
    15:00 +8°C° 0 mm 1 mps 682 mmHg 25%
    16:00 +7°C° 0 mm 1 mps 682 mmHg 27%
    17:00 +6°C° 0 mm 1 mps 682 mmHg 29%
    18:00 +5°C° 0 mm 1 mps 683 mmHg 29%
    19:00 +4°C° 0 mm 2 mps 683 mmHg 28%
    20:00 +4°C° 0 mm 2 mps 683 mmHg 28%
    21:00 +4°C° 0 mm 2 mps 683 mmHg 28%
    22:00 +4°C° 0 mm 2 mps 683 mmHg 28%
    23:00 +3°C° 0 mm 2 mps 683 mmHg 28%

    15 December, Saturday

    Time Temperature Precipitation Wind Pressure Humidity
    00:00 +3°C° 0 mm 2 mps 683 mmHg 28%
    01:00 +3°C° 0 mm 2 mps 683 mmHg 28%
    02:00 +3°C° 0 mm 2 mps 682 mmHg 28%
    03:00 +3°C° 0 mm 2 mps 682 mmHg 29%
    04:00 +4°C° 0 mm 1 mps 682 mmHg 29%
    05:00 +4°C° 0 mm 1 mps 682 mmHg 30%
    06:00 +4°C° 0 mm 1 mps 682 mmHg 30%
    07:00 +3°C° 0 mm 2 mps 682 mmHg 30%
    08:00 +3°C° 0 mm 2 mps 683 mmHg 30%
    09:00 +5°C° 0 mm 1 mps 683 mmHg 28%
    10:00 +7°C° 0 mm 1 mps 683 mmHg 26%
    11:00 +9°C° 0 mm 1 mps 683 mmHg 24%
    12:00 +9°C° 0 mm 1 mps 682 mmHg 24%
    13:00 +10°C° 0 mm 1 mps 682 mmHg 24%
    14:00 +10°C° 0 mm 1 mps 682 mmHg 24%
    15:00 +9°C° 0 mm 1 mps 682 mmHg 26%
    16:00 +8°C° 0 mm 1 mps 681 mmHg 28%
    17:00 +6°C° 0 mm 1 mps 681 mmHg 30%
    18:00 +6°C° 0 mm 1 mps 681 mmHg 30%
    19:00 +6°C° 0 mm 1 mps 681 mmHg 30%
    20:00 +5°C° 0 mm 1 mps 681 mmHg 30%
    21:00 +5°C° 0 mm 1 mps 681 mmHg 30%
    22:00 +5°C° 0 mm 1 mps 681 mmHg 30%
    23:00 +5°C° 0 mm 1 mps 681 mmHg 29%

    16 December, Sunday

    Time Temperature Precipitation Wind Pressure Humidity
    00:00 +5°C° 0 mm 1 mps 681 mmHg 30%
    01:00 +4°C° 0 mm 1 mps 681 mmHg 30%
    02:00 +4°C° 0 mm 1 mps 681 mmHg 30%
    03:00 +4°C° 0 mm 1 mps 681 mmHg 31%
    04:00 +4°C° 0 mm 1 mps 682 mmHg 31%
    05:00 +4°C° 0 mm 1 mps 682 mmHg 32%
    06:00 +4°C° 0 mm 1 mps 682 mmHg 32%
    07:00 +4°C° 0 mm 1 mps 682 mmHg 33%
    08:00 +4°C° 0 mm 1 mps 682 mmHg 34%
    09:00 +5°C° 0 mm 1 mps 683 mmHg 32%
    10:00 +6°C° 0 mm 1 mps 683 mmHg 30%
    11:00 +8°C° 0 mm 1 mps 683 mmHg 28%
    12:00 +8°C° 0 mm 1 mps 683 mmHg 28%
    13:00 +8°C° 0 mm 1 mps 683 mmHg 29%
    14:00 +9°C° 0 mm 1 mps 683 mmHg 29%
    15:00 +8°C° 0 mm 1 mps 683 mmHg 33%
    16:00 +7°C° 0 mm 1 mps 683 mmHg 36%
    17:00 +6°C° 0 mm 1 mps 684 mmHg 40%
    18:00 +5°C° 0 mm 1 mps 684 mmHg 41%
    19:00 +5°C° 0 mm 1 mps 684 mmHg 42%
    20:00 +4°C° 0 mm 1 mps 684 mmHg 42%
    21:00 +4°C° 0 mm 1 mps 684 mmHg 43%
    22:00 +4°C° 0 mm 1 mps 684 mmHg 43%
    23:00 +3°C° 0 mm 1 mps 684 mmHg 43%

    17 December, Monday

    Time Temperature Precipitation Wind Pressure Humidity
    00:00 +3°C° 0 mm 1 mps 684 mmHg 44%
    01:00 +3°C° 0 mm 1 mps 684 mmHg 44%
    02:00 +3°C° 0 mm 1 mps 684 mmHg 45%
    03:00 +3°C° 0 mm 1 mps 683 mmHg 45%
    04:00 +3°C° 0 mm 1 mps 683 mmHg 45%
    05:00 +3°C° 0 mm 1 mps 683 mmHg 46%
    06:00 +3°C° 0 mm 1 mps 682 mmHg 46%
    07:00 +3°C° 0 mm 1 mps 682 mmHg 47%
    08:00 +3°C° 0 mm 1 mps 682 mmHg 47%
    09:00 +4°C° 0 mm 1 mps 682 mmHg 43%
    10:00 +5°C° 0 mm 1 mps 682 mmHg 40%
    11:00 +7°C° 0 mm 1 mps 682 mmHg 37%
    12:00 +7°C° 0 mm 1 mps 682 mmHg 37%
    13:00 +8°C° 0 mm 1 mps 682 mmHg 36%
    14:00 +8°C° 0 mm 1 mps 681 mmHg 36%
    15:00 +7°C° 0 mm 1 mps 681 mmHg 40%
    16:00 +6°C° 0 mm 1 mps 681 mmHg 44%
    17:00 +5°C° 0 mm 1 mps 681 mmHg 48%
    18:00 +5°C° 0.1 mm 1 mps 681 mmHg 49%
    19:00 +5°C° 0.1 mm 1 mps 681 mmHg 49%
    20:00 +5°C° 0.1 mm 1 mps 681 mmHg 50%
    21:00 +5°C° 0.1 mm 1 mps 681 mmHg 52%
    22:00 +5°C° 0.1 mm 1 mps 681 mmHg 53%
    23:00 +5°C° 0.1 mm 1 mps 681 mmHg 54%
    Show more